G0UBK Weather Reports


time (UTC)temp
C
wind
direction
speed
KPH
gust
KPH
rain 1hr
cm
rain 24hr
cm
rain mn
cm
humidity
%
barometer
mb
20260506111549 9 327 1.6 8.0 0.00 0.05 0.05 69 1016.8
20260506110051 9 0 3.2 9.7 0.00 0.05 0.05 68 1016.8
20260506104608 9 41 4.8 11.3 0.00 0.05 0.05 65 1016.8
20260506103051 10 56 1.6 14.5 0.00 0.05 0.05 67 1016.9
20260506101549 9 117 4.8 12.9 0.00 0.05 0.05 65 1016.8
20260506100051 10 18 1.6 11.3 0.00 0.05 0.05 66 1016.8
20260506094550 9 3 3.2 11.3 0.00 0.05 0.05 70 1016.9
20260506093048 9 356 1.6 11.3 0.00 0.05 0.05 68 1017.0
20260506091548 9 55 1.6 6.4 0.00 0.05 0.05 68 1017.0
20260506090049 8 41 1.6 9.7 0.00 0.05 0.05 70 1016.8
20260506084551 7 61 3.2 11.3 0.00 0.05 0.05 68 1016.9
20260506083051 7 49 3.2 11.3 0.00 0.05 0.05 69 1016.8
20260506081557 7 85 1.6 9.7 0.00 0.05 0.05 72 1016.8
20260506073050 7 25 3.2 14.5 0.00 0.05 0.05 74 1016.5
20260506071547 7 12 4.8 12.9 0.00 0.05 0.05 76 1016.5
20260506061552 7 339 3.2 12.9 0.00 0.05 0.05 79 1016.1
20260506044603 6 94 3.2 16.1 0.05 0.05 0.05 81 1015.9
20260506043055 6 96 6.4 16.1 0.05 0.05 0.05 82 1015.9
20260506041547 6 78 3.2 14.5 0.05 0.05 0.05 84 1015.9
20260506040056 5 69 3.2 8.0 0.00 0.00 0.00 82 1015.9
20260506034552 5 49 6.4 19.3 0.00 0.00 0.00 79 1016.1
20260506033048 6 59 4.8 16.1 0.00 0.00 0.00 80 1016.1
20260506031547 6 34 4.8 12.9 0.00 0.00 0.00 81 1016.1
20260506030046 6 79 1.6 17.7 0.00 0.00 0.00 82 1015.9
20260506024546 6 1 3.2 12.9 0.00 0.00 0.00 82 1016.0
20260506023050 6 345 4.8 20.9 0.00 0.00 0.00 82 1015.9
20260506021557 6 274 8.0 17.7 0.00 0.00 0.00 82 1015.9
20260506020048 6 279 9.7 20.9 0.00 0.00 0.00 84 1015.9
20260506014609 6 293 12.9 22.5 0.00 0.00 0.00 85 1016.0
20260506013052 6 309 12.9 22.5 0.00 0.00 0.00 85 1015.9
20260506011555 6 340 9.7 19.3 0.00 0.00 0.00 84 1016.0
20260506010058 6 311 8.0 20.9 0.00 0.00 0.00 83 1016.1
20260506004551 6 319 1.6 11.3 0.00 0.00 0.00 80 1016.1
20260506003059 6 333 4.8 16.1 0.00 0.00 0.00 77 1016.2
20260506001613 6 323 4.8 17.7 0.00 0.00 0.00 77 1016.3
20260506000054 6 309 8.0 19.3 0.00 0.00 0.00 78 1016.3
20260505234609 6 303 6.4 12.9 0.00 0.00 0.00 78 1016.3
20260505233057 6 301 3.2 12.9 0.00 0.00 0.00 78 1016.4
20260505231557 6 0 3.2 11.3 0.00 0.00 0.00 78 1016.5
20260505230049 6 115 3.2 12.9 0.00 0.00 0.00 80 1016.5
20260505224551 6 323 4.8 17.7 0.00 0.00 0.00 79 1016.6
20260505223106 6 314 8.0 17.7 0.00 0.00 0.00 79 1016.6
20260505221552 6 309 6.4 16.1 0.00 0.00 0.00 79 1016.6
20260505220100 6 338 3.2 12.9 0.00 0.00 0.00 81 1016.7
20260505214558 6 87 4.8 20.9 0.00 0.00 0.00 81 1016.6
20260505213054 6 326 6.4 17.7 0.00 0.00 0.00 82 1016.7
20260505211617 6 293 4.8 14.5 0.00 0.00 0.00 81 1016.7
20260505210054 6 313 4.8 11.3 0.00 0.00 0.00 82 1016.8
20260505204549 6 352 4.8 19.3 0.00 0.00 0.00 82 1016.9
20260505203110 6 30 3.2 9.7 0.00 0.00 0.00 81 1016.9
20260505201552 6 296 3.2 19.3 0.00 0.00 0.00 80 1016.9
20260505200048 6 212 1.6 12.9 0.00 0.00 0.00 81 1016.8
20260505194547 6 37 3.2 11.3 0.00 0.00 0.00 81 1016.8
20260505193051 7 266 4.8 19.3 0.00 0.00 0.00 81 1016.7
20260505191554 7 345 3.2 12.9 0.00 0.00 0.00 82 1016.4
20260505190053 7 316 6.4 17.7 0.00 0.00 0.00 82 1016.4
20260505184555 7 342 9.7 19.3 0.00 0.00 0.00 82 1016.5
20260505183048 7 331 3.2 16.1 0.00 0.00 0.00 82 1016.2
20260505181552 7 291 6.4 25.7 0.00 0.00 0.00 82 1016.3
20260505180057 7 311 8.0 19.3 0.00 0.00 0.00 81 1016.2
20260505174553 7 316 8.0 19.3 0.00 0.00 0.00 81 1016.4
20260505173047 7 288 4.8 19.3 0.00 0.00 0.00 79 1016.4
20260505171556 8 89 8.0 24.1 0.00 0.00 0.00 79 1016.3
20260505170050 8 59 11.3 25.7 0.00 0.00 0.00 80 1016.2
20260505164552 8 307 12.9 22.5 0.00 0.00 0.00 80 1016.2
20260505163049 8 327 14.5 29.0 0.00 0.00 0.00 81 1016.1
20260505161552 8 315 14.5 27.4 0.00 0.00 0.00 83 1016.0
20260505153055 9 334 12.9 25.7 0.00 0.00 0.00 84 1015.6
20260505151551 9 324 19.3 32.2 0.00 0.00 0.00 84 1015.6
20260505124550 9 274 12.9 20.9 0.00 0.00 0.00 86 1015.4
20260505123055 9 297 9.7 19.3 0.00 0.00 0.00 87 1015.2
20260505121550 9 323 11.3 20.9 0.00 0.00 0.00 86 1015.2
20260505120057 9 332 12.9 20.9 0.00 0.00 0.00 86 1015.0
20260505114548 10 298 9.7 20.9 0.00 0.00 0.00 86 1014.9
20260505113052 9 325 12.9 20.9 0.00 0.00 0.00 87 1014.9